Погода в Росоне

Аргентина     43°18′52″S   65°04′40″W
темп.,
°C
ветер,
м/с
пор.,
м/с
влажн.,
%
обл.,
%
осадки,
мм/ч
давл.,
гПа
погр.,
м
27 июня, пн
пн2700:00+6сз45550 0.0 100378
03:00+5зсз69550 0.0 1002181
06:00+5з917420 0.0 1001332
09:00+8зюз112034100 0.0 1003490
12:00+11зюз11183388 0.0 1006828
15:00+11зюз8134085 0.0 1006603
18:00+11зюз61146100 0.0 1009226
21:00+9з7114996 0.0 1010274
28 июня, вт
вт2800:00+8з4860100 0.0 1010178
03:00+7зсз4665100 0.0 1009104
06:00+7с576322 0.0 100798
09:00+7ссз5760100 0.0 100697
12:00+12зсз71451100 0.0 1004362
15:00+16зсз9144188 0.0 1001405
18:00+14сз7115067 0.0 1000128
21:00+12сз6956100 0.0 99997
29 июня, ср
ср2900:00+11зсз4562100 0.0 99952
03:00+10зсз456599 0.0 99750
06:00+9з567299 0.0 99687
09:00+9з9178293 1.7 997954
12:00+11з15194127 0.0 9982118
15:00+8зюз1820565 0.0 9981235
18:00+6ююз192390100 1.0 10041422
21:00+6юз11146734 1.6 1011997
30 июня, чт
чт3000:00+4зюз713640 0.0 1013399
03:00+3з610700 0.0 1013210
06:00+3зсз67590 0.0 1013124
09:00+4сз695751 0.0 1012198
12:00+8з713457 0.0 1012608
15:00+12зсз68360 0.0 1010750
18:00+10зсз44405 0.0 100935
21:00+9сз33407 0.0 100828
1 июля, пт
пт100:00+7з444180 0.0 100763
03:00+6сз3345100 0.0 100751
06:00+7ююв3459100 0.0 1005163
09:00+7юв3466100 0.0 1005251
12:00+8вюв1357100 0.0 1005442
15:00+9ю6665100 0.0 1004846
18:00+8ю687694 0.0 1005421
21:00+7ююз687699 0.1 1007455